map of MEX home
MEX - Airport
Location
City:  México City, Distrito Federal, México
Near (Alt.):Ciudad de México
Name:Benito Juárez International Airport
ICAO:MMMX
IATA:MEX

Details
Type:Airport (Aerodrome, Airfield)
Use:Public/Civil, International (customs port of entry)
Latitude:19°26'11"N (19.436303)
Longitude:99°04'20"W (-99.072096)
Datum:WGS 1984
Elevation:7316 ft (2230 m)
Variation:4.73°E (WMM2015 magnetic declination)
-0.11° annual change
Runways:2
Longest:12966 × 148 ft (3952 × 45 m), paved

Time
Time Zone:UTC-6 (DST-5)
Local Time:

Weather
METAR:MMMX 291451Z 07004KT 15SM SKC 19/M01 A3027 NOSIG RMK SLP055 53015 958 DSNT CI N DSNT CU W

Related Locations
Nearby:
Farthest:NKW: 11425 mi / 18387 km
Diego Garcia, Chagos Archipelago, IO

Find:

   beyond  
but within

Other Information
Maps:
NOTAMs:
Links:
Sources:

  
flag of México
flag of Distrito Federal
  

Sectional Chart

Flight Planning
at skyvector.com

Satellite Image

Google Maps Satellite view

 

Copyright © 2004-2017 Karl L. Swartz. All rights reserved.
The Great Circle Mapper name and logo are trademarks of the Great Circle Mapper.
All other trademarks mentioned herein belong to their respective owners.
Please see credits for attibutions and further copyright information.

  Follow gcmap on Facebook Follow gcmap on Twitter Follow gcmap on Google+ GCmap on LinkedIn

hCard Microformat

Geo Microformat